#timestamp,LO_Frequency,Hit,StdDev 
1581744555.9,286046997.4,P
1581744575.7,286046999.3,P
1581744595.5,286046999.3,N
1581744615.4,286046999.1,N
1581744635.2,286046997.7,N
1581744655.1,286046997.1,Y
1581744656.0,286046997.1,P
1581744675.8,286047001.2,N
1581744695.6,286046998.6,N
1581744715.5,286047001.1,N
1581744735.3,286047000.9,N
1581744755.2,286047000.9,N
1581744775.9,286047002.7,N
1581744795.7,286047000.2,N
1581744815.6,286046998.2,N
1581744835.4,286047001.2,N
1581744855.3,286046998.6,N
1581744875.1,286047001.1,N
1581744876.0,286047001.1,N
1581744895.8,286047000.8,N
1581744915.7,286047002.8,N
1581744935.5,286047002.0,N
1581744955.3,286047001.4,N
1581744975.2,286047002.8,N
1581744995.0,286047001.0,N
1581744995.9,286047001.0,N
1581745015.8,286046999.7,N
1581745035.6,286047002.0,N
1581745055.4,286047000.4,N
1581745075.3,286047000.3,N
1581745095.1,286046998.5,N
1581745115.9,286046998.4,N
1581745135.7,286047000.9,N
1581745155.5,286047000.2,N
1581745175.4,286047002.4,N
1581745195.2,286047000.4,N
1581745215.0,286047000.5,N
1581745215.9,286047000.5,N
1581745235.8,286047001.2,N
1581745255.6,286047001.0,N
1581745275.5,286047000.6,N
1581745295.3,286047000.4,N
1581745315.1,286046999.7,N
1581745335.9,286047002.0,N
1581745355.7,286047002.1,N
1581745375.5,286047001.6,N
1581745395.4,286047001.8,N
1581745415.2,286047002.3,N
1581745435.1,286047001.6,N
1581745436.0,286047001.6,N
1581745455.8,286047002.5,N
1581745475.6,286046999.8,N
1581745495.5,286047002.7,N
1581745515.3,286047000.2,N
1581745535.2,286046999.9,N
1581745555.9,286047000.2,N
1581745575.7,286046999.8,N
1581745595.6,286047000.7,N
1581745615.4,286046998.2,N
1581745635.2,286047000.7,N
1581745655.1,286047000.9,N
1581745656.0,286047000.9,N
1581745675.8,286046998.5,N
1581745695.7,286046998.2,N
1581745715.5,286046998.4,N
1581745735.3,286046999.0,N
1581745755.2,286046998.8,N
1581745775.0,286046998.5,N
1581745775.9,286046998.5,N
1581745795.7,286046998.4,N
1581745815.6,286047001.1,N
1581745835.4,286047001.0,N
1581745855.3,286047000.5,N
1581745875.1,286047000.8,N
1581745876.0,286047000.8,N
1581745895.8,286047000.1,N
1581745915.7,286047001.7,N
1581745935.5,286047003.0,N
1581745955.4,286047004.5,Y
1581745975.2,286047005.0,P
1581745995.0,286047005.7,N
1581745995.9,286047005.7,N
1581746015.8,286047003.7,N
1581746035.6,286047001.3,N
1581746055.4,286047003.0,N
1581746075.3,286047005.4,N
1581746095.1,286047004.7,N
1581746115.9,286047004.7,N
1581746135.7,286047006.9,Y
1581746155.5,286047003.6,P
1581746175.4,286047003.5,P
1581746195.2,286047003.4,P
1581746215.0,286047007.6,Y
1581746216.0,286047007.6,P
1581746235.8,286047003.1,N
1581746255.6,286047001.3,N
1581746275.5,286047002.3,N
1581746295.3,286046998.5,N
1581746315.1,286046998.2,N
1581746335.9,286047000.3,N
1581746355.7,286047000.5,N
1581746375.6,286046999.1,N
1581746395.4,286046997.1,N
